Lid_Strength_Index
1 1 -0 -0 -0 -1 -1 -1 -0 -0 -1 -0 -0 -1 -1 -0 1 8 10 6 4 -1 -0 6 8 7 7 8 8 9 12 14 13 14 12 12 11 12 12 12 12 12 12 12 11
1 1 1 0 -0 -0 -0 -1 -0 -0 -0 -0 -0 -1 -1 0 8 10 3 -0 -1 -1 7 8 9 8 9 9 9 11 13 12 12 12 12 12 11 12 12 13 13 14 13 13 12
1 1 1 1 0 -0 -0 -0 -0 -0 -0 -0 -0 -0 -0 2 9 10 0 -0 -1 1 7 8 8 9 10 10 10 11 13 11 11 11 11 11 12 12 12 13 12 13 14 13 13
1 1 1 1 1 0 -0 -0 -0 -0 -0 -0 -0 -0 0 6 12 8 -0 0 1 5 8 9 9 10 11 11 10 12 11 11 10 10 11 11 12 12 13 11 11 12 13 13 14
1 1 1 1 1 0 0 -0 -0 -0 0 -0 -0 0 5 10 9 6 2 3 8 8 9 10 10 11 11 12 11 12 12 11 10 11 11 11 11 11 13 12 13 14 14 14 14
2 1 1 1 1 0 0 0 -0 0 0 -0 -0 0 7 11 7 7 8 8 8 9 10 9 10 10 11 11 12 12 11 11 11 11 11 12 12 12 12 14 14 15 14 14 14
2 2 2 1 1 0 0 0 0 0 0 -0 -0 4 8 9 7 8 7 9 9 9 9 9 9 10 10 12 11 12 13 12 12 12 12 12 13 13 12 14 15 15 15 15 15
3 3 2 1 1 1 0 0 0 1 0 -0 -0 6 9 6 6 7 8 9 8 8 8 9 9 9 11 11 12 13 14 15 13 12 12 12 14 12 13 15 14 15 16 15 15
3 3 2 2 1 1 1 1 1 1 -0 -0 6 8 10 4 8 7 9 9 9 9 9 8 9 11 11 13 14 14 15 15 14 13 13 13 14 12 14 15 14 15 16 16 15
3 3 3 2 2 1 1 1 2 2 2 4 6 9 9 9 7 7 9 9 9 9 9 10 12 13 14 13 16 16 16 16 16 14 14 15 15 12 13 15 14 14 15 16 16
3 3 3 3 2 1 3 8 9 12 10 10 11 11 10 8 7 9 9 9 10 11 12 12 13 14 13 13 14 15 15 15 15 14 15 15 15 13 11 14 14 15 16 15 15
3 3 3 2 1 1 8 10 10 10 12 10 11 10 9 8 10 9 9 11 11 13 12 13 14 12 13 14 14 15 16 16 15 15 16 16 16 13 13 12 11 12 14 15 15
3 4 4 3 2 7 9 9 7 9 13 11 10 10 10 8 10 10 10 12 13 14 14 14 14 13 13 15 15 16 16 17 16 16 16 18 18 17 15 14 13 13 13 14 15
3 4 4 4 6 9 10 9 8 9 18 15 13 10 9 9 12 11 11 12 14 14 14 14 13 13 15 15 15 16 15 16 17 17 19 17 19 18 15 14 14 13 15 14 15
4 4 3 5 9 11 9 8 9 13 23 15 13 9 10 11 12 12 12 13 14 14 13 14 15 15 15 14 14 15 16 16 17 18 20 20 21 18 19 17 14 13 14 15 15
4 4 4 7 9 10 10 10 11 17 22 16 12 13 12 12 12 12 13 12 13 13 15 14 14 14 14 15 15 15 17 17 20 20 23 18 19 20 19 17 15 14 14 15 16
4 4 5 7 10 10 10 12 18 22 16 17 15 13 14 14 13 13 14 15 15 16 16 15 15 15 14 15 15 16 16 19 21 23 21 22 23 18 17 16 15 14 14 15 16
3 4 5 6 9 9 12 13 21 19 18 15 14 14 14 14 14 14 15 16 14 15 16 16 16 15 14 13 15 17 15 18 23 24 20 24 23 18 17 14 16 16 16 17 17
3 5 6 5 7 9 13 19 19 17 15 15 15 16 16 14 14 15 15 16 13 12 13 16 16 17 16 16 15 18 19 17 21 30 25 20 19 17 17 17 17 17 18 17 17
5 6 7 6 7 9 14 16 17 15 15 15 17 15 18 15 15 15 16 15 14 13 12 14 16 17 18 18 19 18 17 19 19 23 26 21 19 18 17 16 15 16 16 16 17
5 9 7 6 6 11 16 17 16 13 13 14 16 17 17 17 16 18 16 16 14 14 13 14 13 17 18 19 18 19 19 19 17 19 22 23 19 18 16 15 15 14 15 16 17
7 11 8 6 11 11 14 15 13 15 14 14 15 16 16 16 15 16 16 13 12 13 14 13 14 16 18 19 19 18 17 16 19 20 21 21 19 16 16 15 15 14 15 16 17
8 9 8 7 14 14 15 15 13 15 15 14 15 15 15 16 17 16 15 14 13 13 14 14 16 19 17 20 19 19 19 17 19 20 19 21 19 15 16 16 15 16 16 16 17
9 13 11 10 10 12 13 14 14 13 13 14 15 14 16 17 15 15 16 15 14 13 11 12 16 16 18 17 19 20 20 18 18 19 18 19 17 15 14 14 14 16 17 16 17
6 10 12 15 13 12 12 13 13 14 14 13 14 14 15 16 15 16 15 16 15 14 15 14 17 16 15 15 18 19 18 18 19 18 19 17 17 15 13 12 12 12 11 14 18
8 10 9 11 11 12 12 13 14 12 13 14 14 13 13 15 14 15 14 15 14 17 17 16 17 16 17 15 18 18 17 16 17 17 17 17 17 13 11 12 12 11 12 13 16
4 4 8 9 11 12 13 13 12 12 11 11 11 13 13 13 11 11 11 12 12 14 16 17 17 18 19 17 17 20 17 16 15 15 15 17 15 13 13 13 12 12 11 12 12